Tillamook, OR

4:56 AM PST on February 06, 2016 (GMT -0800)
Tillamook

Weather History for KTMK - April, 2013

Change the Weather History Date:

Friday, April 19, 2013

  Actual Average (KMMV) Record (KMMV)
Temperature  
Mean Temperature 52 °F 50 °F  
Max Temperature 53 °F 61 °F 81 °F (1956)
Min Temperature 50 °F 39 °F 27 °F (1977)
Degree Days  
Heating Degree Days 14 15  
Month to date heating degree days 299  
Since 1 July heating degree days 4250  
Cooling Degree Days 0 0  
Month to date cooling degree days 0  
Year to date cooling degree days 0  
Growing Degree Days 2 (Base 50)    
Moisture  
Dew Point 51 °F    
Average Humidity 97    
Maximum Humidity 100    
Minimum Humidity 88    
Precipitation  
Precipitation 0.81 in 0.09 in 0.98 in (1965)
Month to date precipitation 2.02  
Year to date precipitation 16.59  
Sea Level Pressure  
Sea Level Pressure 30.27 in    
Wind  
Wind Speed 6 mph (SW)    
Max Wind Speed 15 mph    
Max Gust Speed 23 mph    
Visibility 5 miles    
Events Rain    
T = Trace of Precipitation, MM = Missing Value Source: NWS Daily Summary

Daily Weather History Graph

Daily Weather History Graph

Search for Another Location

Airport or City:

Trip Planner

Search our weather history database for the weather conditions in past years. The results will help you decide how hot, cold, wet, or windy it might be!

Date:

Astronomy

Apr. 19, 2013 Rise Set
Actual Time 7:22 AM MDT 9:07 PM MDT
Civil Twilight 6:51 AM MDT 9:38 PM MDT
Nautical Twilight 6:12 AM MDT 10:16 PM MDT
Astronomical Twilight 5:31 AM MDT 10:58 PM MDT
Moon 2:39 PM MDT (4/19) 3:59 AM MDT (4/19)
Length of Visible Light 14h 47m
Length of Day
13h 44m
Waxing Gibbous, 62% of the Moon is Illuminated
Apr 19
Waxing Gibbous
Apr 25
Full
May 2
Last Quarter
May 9
New
May 17
First Quarter

Hourly Weather History & Observations

Time (MDT) Temp. Dew Point Humidity Pressure Visibility Wind Dir Wind Speed Gust Speed Precip Events Conditions
12:15 AM 51.8 °F 51.8 °F 100% 30.36 in 10.0 mi South 4.6 mph - N/A   Overcast
12:35 AM 51.8 °F 51.8 °F 100% 30.35 in 5.0 mi South 3.5 mph - N/A Rain Light Rain
12:55 AM 51.8 °F 51.8 °F 100% 30.34 in 2.5 mi South 4.6 mph - N/A   Light Drizzle
1:15 AM 51.8 °F 51.8 °F 100% 30.34 in 4.0 mi South 4.6 mph - 0.01 in   Drizzle
1:35 AM 51.8 °F 51.8 °F 100% 30.34 in 7.0 mi SSW 5.8 mph - 0.01 in   Drizzle
1:55 AM 51.8 °F 51.8 °F 100% 30.33 in 10.0 mi South 4.6 mph - 0.02 in   Drizzle
2:15 AM 51.8 °F 51.8 °F 100% 30.33 in 10.0 mi South 4.6 mph - N/A   Drizzle
2:35 AM 51.8 °F 51.8 °F 100% 30.33 in 10.0 mi South 3.5 mph - 0.01 in Rain Light Rain
2:55 AM 51.8 °F 50.0 °F 94% 30.32 in 10.0 mi Calm Calm - 0.01 in Rain Light Rain
3:15 AM 51.8 °F 50.0 °F 94% 30.30 in 7.0 mi South 3.5 mph - 0.02 in Rain Light Rain
3:35 AM 51.8 °F 50.0 °F 94% 30.29 in 7.0 mi Calm Calm - 0.03 in Rain Light Rain
3:55 AM 50.0 °F 50.0 °F 100% 30.29 in 5.0 mi Calm Calm - 0.06 in Rain Light Rain
4:15 AM 50.0 °F 50.0 °F 100% 30.28 in 5.0 mi SSE 4.6 mph - 0.03 in Rain Rain
4:35 AM 50.0 °F 50.0 °F 100% 30.26 in 3.0 mi South 4.6 mph - 0.05 in Rain Light Rain
4:55 AM 51.8 °F 50.0 °F 94% 30.25 in 3.0 mi Calm Calm - 0.07 in Rain Light Rain
5:15 AM 50.0 °F 50.0 °F 100% 30.24 in 3.0 mi South 3.5 mph - 0.01 in Rain Rain
5:35 AM 51.8 °F 50.0 °F 94% 30.24 in 3.0 mi South 4.6 mph - 0.02 in   Drizzle
5:55 AM 51.8 °F 50.0 °F 94% 30.22 in 4.0 mi South 3.5 mph - 0.05 in Rain Rain
6:15 AM 51.8 °F 50.0 °F 94% 30.21 in 7.0 mi SSW 4.6 mph - 0.05 in Rain Rain
6:35 AM 51.8 °F 50.0 °F 94% 30.21 in 7.0 mi SSW 6.9 mph - 0.09 in Rain Rain
6:55 AM 51.8 °F 50.0 °F 94% 30.22 in 7.0 mi SSW 9.2 mph 18.4 mph 0.16 in Rain Rain
7:15 AM 51.8 °F 50.0 °F 94% 30.20 in 7.0 mi South 9.2 mph - 0.05 in Rain Rain
7:35 AM 51.8 °F 50.0 °F 94% 30.20 in 7.0 mi South 6.9 mph - 0.12 in Rain Rain
7:55 AM 51.8 °F 50.0 °F 94% 30.21 in 4.0 mi SW 9.2 mph - 0.19 in Rain Rain
8:15 AM 51.8 °F 50.0 °F 94% 30.19 in 4.0 mi South 13.8 mph 21.9 mph 0.07 in Rain Rain
8:35 AM 51.8 °F 50.0 °F 94% 30.19 in 7.0 mi SSW 15.0 mph - 0.08 in Rain Rain
8:55 AM 51.8 °F 50.0 °F 94% 30.19 in 5.0 mi SSW 13.8 mph 23.0 mph 0.08 in Rain Light Rain
9:35 AM 53.6 °F 51.8 °F 94% 30.18 in 2.5 mi SSW 8.1 mph - 0.05 in Rain Light Rain
9:55 AM 53.6 °F 51.8 °F 94% 30.18 in 3.0 mi SSW 10.4 mph 19.6 mph 0.09 in Rain Rain
10:15 AM 51.8 °F 51.8 °F 100% 30.19 in 4.0 mi SW 15.0 mph - 0.01 in Rain Rain
10:35 AM 53.6 °F 51.8 °F 94% 30.19 in 2.5 mi SW 9.2 mph - 0.04 in Rain Light Rain
10:55 AM 53.6 °F 51.8 °F 94% 30.19 in 1.8 mi WSW 12.7 mph - 0.06 in   Drizzle
11:15 AM 51.8 °F 51.8 °F 100% 30.20 in 1.5 mi WSW 13.8 mph 19.6 mph N/A Rain Light Rain
11:35 AM 51.8 °F 51.8 °F 100% 30.21 in 1.2 mi West 10.4 mph 17.3 mph 0.01 in Rain Light Rain
11:55 AM 51.8 °F 51.8 °F 100% 30.22 in 1.0 mi West 12.7 mph 20.7 mph 0.01 in   Overcast
12:15 PM 51.8 °F 51.8 °F 100% 30.23 in 2.0 mi West 13.8 mph 21.9 mph N/A   Overcast
12:35 PM 51.8 °F 51.8 °F 100% 30.23 in 1.5 mi WSW 15.0 mph 18.4 mph N/A   Overcast
12:55 PM 51.8 °F 51.8 °F 100% 30.24 in 1.5 mi WSW 11.5 mph - N/A   Overcast
1:15 PM 51.8 °F 51.8 °F 100% 30.24 in 2.5 mi WSW 11.5 mph - N/A   Overcast
1:35 PM 51.8 °F 51.8 °F 100% 30.24 in 1.2 mi WSW 12.7 mph 17.3 mph N/A   Overcast
1:55 PM 51.8 °F 51.8 °F 100% 30.25 in 10.0 mi West 12.7 mph 16.1 mph N/A   Overcast
2:15 PM 51.8 °F 50.0 °F 94% 30.26 in 3.0 mi WSW 9.2 mph - N/A   Overcast
2:35 PM 51.8 °F 50.0 °F 94% 30.27 in 1.2 mi West 10.4 mph - N/A   Light Drizzle
2:55 PM 51.8 °F 50.0 °F 94% 30.27 in 1.8 mi West 10.4 mph - N/A   Overcast
3:15 PM 51.8 °F 51.8 °F 100% 30.27 in 1.2 mi West 8.1 mph - N/A   Overcast
3:35 PM 51.8 °F 51.8 °F 100% 30.28 in 1.5 mi West 10.4 mph - 0.01 in   Overcast
3:55 PM 51.8 °F 51.8 °F 100% 30.28 in 1.8 mi West 11.5 mph - 0.01 in   Overcast
4:15 PM 51.8 °F 51.8 °F 100% 30.28 in 5.0 mi WNW 9.2 mph - N/A   Overcast
4:35 PM 53.6 °F 51.8 °F 94% 30.29 in 10.0 mi West 6.9 mph - N/A   Overcast
4:55 PM 53.6 °F 50.0 °F 88% 30.29 in 5.0 mi WNW 5.8 mph - N/A   Overcast
5:15 PM 53.6 °F 50.0 °F 88% 30.29 in 10.0 mi West 8.1 mph - N/A   Overcast
5:35 PM 53.6 °F 50.0 °F 88% 30.29 in 2.5 mi West 5.8 mph - N/A   Overcast
5:55 PM 51.8 °F 50.0 °F 94% 30.30 in 5.0 mi West 8.1 mph - N/A   Overcast
6:15 PM 51.8 °F 50.0 °F 94% 30.29 in 3.0 mi West 4.6 mph - N/A   Overcast
6:35 PM 51.8 °F 50.0 °F 94% 30.29 in 5.0 mi West 8.1 mph - N/A   Overcast
6:55 PM 51.8 °F 50.0 °F 94% 30.30 in 7.0 mi West 6.9 mph - N/A   Overcast
7:15 PM 51.8 °F 50.0 °F 94% 30.31 in 10.0 mi WSW 5.8 mph - N/A   Overcast
7:35 PM 51.8 °F 50.0 °F 94% 30.31 in 5.0 mi West 3.5 mph - N/A   Overcast
7:55 PM 51.8 °F 50.0 °F 94% 30.31 in 7.0 mi WSW 3.5 mph - N/A   Overcast
8:15 PM 51.8 °F 50.0 °F 94% 30.30 in 10.0 mi WSW 3.5 mph - N/A   Overcast
8:35 PM 51.8 °F 48.2 °F 88% 30.30 in 10.0 mi SW 3.5 mph - N/A   Overcast
8:55 PM 50.0 °F 48.2 °F 94% 30.30 in 10.0 mi Calm Calm - N/A   Overcast
9:15 PM 50.0 °F 48.2 °F 94% 30.31 in 5.0 mi SW 3.5 mph - N/A   Overcast
9:35 PM 50.0 °F 50.0 °F 100% 30.31 in 7.0 mi Calm Calm - N/A   Overcast
9:55 PM 50.0 °F 50.0 °F 100% 30.32 in 4.0 mi Calm Calm - N/A   Overcast
10:15 PM 50.0 °F 50.0 °F 100% 30.32 in 10.0 mi SSW 3.5 mph - N/A   Overcast
10:35 PM 50.0 °F 50.0 °F 100% 30.32 in 4.0 mi SW 3.5 mph - N/A   Overcast
10:55 PM 50.0 °F 50.0 °F 100% 30.33 in 2.0 mi SW 3.5 mph - N/A   Drizzle
11:15 PM 50.0 °F 50.0 °F 100% 30.33 in 3.0 mi West 5.8 mph - N/A   Overcast
11:35 PM 50.0 °F 50.0 °F 100% 30.33 in 3.0 mi West 4.6 mph - N/A   Overcast
11:55 PM 50.0 °F 50.0 °F 100% 30.33 in 2.5 mi Calm Calm - N/A   Overcast